Location: Treviso
(45.6669°N, 12.2430°E)
Time: 06:08:46
(UTC+02:00)

ISS - Pass Details

Date: 15 September 2018
Orbit: 403 x 409 km, 51.6° (Epoch: 24 September)

Event Time Altitude Azimuth Distance (km) Brightness Sun altitude
Exits shadow 04:59:31 46° 325° (NW) 556 -3.3 -19.2°
Maximum altitude 05:00:16 64° 24° (NNE) 452 -3.5 -19.1°
Drops below altitude 10° 05:03:31 10° 108° (ESE) 1,457 -0.4 -18.5°
Sets 05:05:36 0° 111° (ESE) 2,313 0.7 -18.2°
